Location: Pcim
(49.7500°N, 19.9670°E)
Time: 20:43:27
(UTC+02:00)

MOZHAYETS 4 - Pass Details

Date: 02 May 2024
Orbit: 652 x 670 km, 98.3° (Epoch: 20 May)

Event Time Altitude Azimuth Distance (km) Brightness Sun altitude
Rises 03:15:08 0° 147° (SSE) 3,008 10.9 -16.1°
Reaches altitude 10° 03:17:25 10° 142° (SE) 2,098 10.2 -15.8°
Maximum altitude 03:21:49 47° 69° (ENE) 886 8.7 -15.4°
Drops below altitude 10° 03:26:13 10° 356° (N) 2,108 10.9 -14.9°
Sets 03:28:31 0° 351° (N) 3,023 11.7 -14.6°
